| time (UTC) | temp F | wind direction | speed MPH | gust MPH | rain 1hr in | rain 24hr in | rain mn in | humidity % | barometer mb |
| 20260506081124 | 67 | 212 | 8.0 | 13.0 | 0.00 | 0.00 | 0.00 | 67 | 1007.3 |
| 20260506080621 | 67 | 190 | 6.0 | 11.0 | 0.00 | 0.00 | 0.00 | 67 | 1007.6 |
| 20260506080118 | 67 | 200 | 2.0 | 8.0 | 0.00 | 0.00 | 0.00 | 66 | 1007.3 |
| 20260506073102 | 67 | 224 | 10.0 | 13.0 | 0.00 | 0.00 | 0.00 | 65 | 1007.5 |
| 20260506072558 | 67 | 198 | 7.0 | 10.0 | 0.00 | 0.00 | 0.00 | 65 | 1007.5 |
| 20260506072056 | 67 | 191 | 6.0 | 11.0 | 0.00 | 0.00 | 0.00 | 65 | 1007.5 |
| 20260506071554 | 67 | 190 | 7.0 | 14.0 | 0.00 | 0.00 | 0.00 | 64 | 1007.5 |
| 20260506071051 | 67 | 201 | 8.0 | 9.0 | 0.00 | 0.00 | 0.00 | 64 | 1007.6 |
| 20260506070548 | 67 | 225 | 5.0 | 8.0 | 0.00 | 0.00 | 0.00 | 64 | 1007.6 |
| 20260506062022 | 68 | 236 | 7.0 | 9.0 | 0.00 | 0.00 | 0.00 | 61 | 1008.0 |
| 20260506061518 | 69 | 190 | 6.0 | 7.0 | 0.00 | 0.00 | 0.00 | 61 | 1008.0 |
| 20260506061016 | 69 | 217 | 6.0 | 9.0 | 0.00 | 0.00 | 0.00 | 60 | 1008.1 |
| 20260506060514 | 69 | 217 | 4.0 | 11.0 | 0.00 | 0.00 | 0.00 | 60 | 1008.2 |
| 20260506050943 | 69 | 180 | 5.0 | 9.0 | 0.00 | 0.00 | 0.00 | 57 | 1008.5 |
| 20260506050441 | 69 | 212 | 4.0 | 10.0 | 0.00 | 0.00 | 0.00 | 57 | 1008.5 |
| 20260506044931 | 69 | 205 | 5.0 | 11.0 | 0.00 | 0.00 | 0.00 | 55 | 1008.6 |
| 20260506044430 | 69 | 208 | 5.0 | 10.0 | 0.00 | 0.00 | 0.00 | 54 | 1008.7 |
| 20260506043926 | 69 | 220 | 5.0 | 14.0 | 0.00 | 0.00 | 0.00 | 53 | 1008.5 |
| 20260506043423 | 69 | 177 | 4.0 | 8.0 | 0.00 | 0.00 | 0.00 | 54 | 1008.5 |
| 20260506042921 | 69 | 183 | 3.0 | 7.0 | 0.00 | 0.00 | 0.00 | 53 | 1008.7 |
| 20260506042420 | 69 | 251 | 5.0 | 8.0 | 0.00 | 0.00 | 0.00 | 53 | 1008.6 |
| 20260506041918 | 69 | 203 | 4.0 | 9.0 | 0.00 | 0.00 | 0.00 | 52 | 1008.8 |
| 20260506041415 | 69 | 173 | 4.0 | 6.0 | 0.00 | 0.00 | 0.00 | 52 | 1008.5 |
| 20260506040912 | 69 | 191 | 6.0 | 7.0 | 0.00 | 0.00 | 0.00 | 52 | 1008.8 |
| 20260506040410 | 69 | 198 | 5.0 | 10.0 | 0.00 | 0.00 | 0.00 | 51 | 1008.4 |
| 20260506035905 | 69 | 199 | 4.0 | 10.0 | 0.00 | 0.00 | 0.00 | 51 | 1008.6 |
| 20260506035403 | 69 | 177 | 5.0 | 9.0 | 0.00 | 0.00 | 0.00 | 51 | 1008.4 |
| 20260506034900 | 69 | 198 | 6.0 | 7.0 | 0.00 | 0.00 | 0.00 | 50 | 1008.4 |
| 20260506034358 | 69 | 208 | 4.0 | 8.0 | 0.00 | 0.00 | 0.00 | 50 | 1008.6 |
| 20260506033854 | 69 | 187 | 4.0 | 7.0 | 0.00 | 0.00 | 0.00 | 51 | 1008.7 |
| 20260506033351 | 70 | 205 | 3.0 | 6.0 | 0.00 | 0.00 | 0.00 | 50 | 1008.4 |
| 20260506032848 | 70 | 205 | 5.0 | 8.0 | 0.00 | 0.00 | 0.00 | 49 | 1008.5 |
| 20260506032345 | 70 | 209 | 6.0 | 9.0 | 0.00 | 0.00 | 0.00 | 49 | 1008.2 |
| 20260506031842 | 70 | 222 | 6.0 | 7.0 | 0.00 | 0.00 | 0.00 | 49 | 1008.3 |
| 20260506031339 | 70 | 199 | 5.0 | 6.0 | 0.00 | 0.00 | 0.00 | 49 | 1008.4 |
| 20260506030837 | 70 | 201 | 5.0 | 9.0 | 0.00 | 0.00 | 0.00 | 48 | 1008.4 |
| 20260506030335 | 70 | 188 | 6.0 | 10.0 | 0.00 | 0.00 | 0.00 | 48 | 1008.4 |
| 20260506025831 | 70 | 195 | 6.0 | 10.0 | 0.00 | 0.00 | 0.00 | 48 | 1008.2 |
| 20260506025327 | 70 | 222 | 7.0 | 9.0 | 0.00 | 0.00 | 0.00 | 47 | 1008.5 |
| 20260506024825 | 70 | 197 | 7.0 | 9.0 | 0.00 | 0.00 | 0.00 | 47 | 1008.4 |
| 20260506024321 | 70 | 229 | 5.0 | 6.0 | 0.00 | 0.00 | 0.00 | 46 | 1008.3 |
| 20260506023818 | 71 | 171 | 3.0 | 7.0 | 0.00 | 0.00 | 0.00 | 45 | 1008.5 |
| 20260506023314 | 71 | 218 | 6.0 | 11.0 | 0.00 | 0.00 | 0.00 | 44 | 1008.5 |
| 20260506022811 | 71 | 211 | 3.0 | 9.0 | 0.00 | 0.00 | 0.00 | 45 | 1008.5 |
| 20260506022309 | 71 | 202 | 4.0 | 9.0 | 0.00 | 0.00 | 0.00 | 43 | 1008.3 |
| 20260506021807 | 71 | 205 | 4.0 | 8.0 | 0.00 | 0.00 | 0.00 | 44 | 1008.5 |
| 20260506021303 | 71 | 217 | 4.0 | 8.0 | 0.00 | 0.00 | 0.00 | 42 | 1008.6 |
| 20260506020800 | 72 | 211 | 7.0 | 8.0 | 0.00 | 0.00 | 0.00 | 42 | 1008.5 |
| 20260506020258 | 72 | 248 | 4.0 | 7.0 | 0.00 | 0.00 | 0.00 | 42 | 1008.4 |
| 20260506015756 | 72 | 194 | 5.0 | 6.0 | 0.00 | 0.00 | 0.00 | 41 | 1008.5 |
| 20260506015253 | 72 | 212 | 4.0 | 9.0 | 0.00 | 0.00 | 0.00 | 41 | 1008.2 |
| 20260506014749 | 73 | 194 | 6.0 | 10.0 | 0.00 | 0.00 | 0.00 | 40 | 1008.1 |
| 20260506014246 | 73 | 160 | 5.0 | 9.0 | 0.00 | 0.00 | 0.00 | 40 | 1008.2 |
| 20260506013743 | 73 | 205 | 4.0 | 11.0 | 0.00 | 0.00 | 0.00 | 39 | 1007.8 |
| 20260506013240 | 74 | 209 | 5.0 | 10.0 | 0.00 | 0.00 | 0.00 | 39 | 1008.1 |
| 20260506012737 | 74 | 203 | 3.0 | 14.0 | 0.00 | 0.00 | 0.00 | 39 | 1008.0 |
| 20260506012234 | 74 | 211 | 8.0 | 13.0 | 0.00 | 0.00 | 0.00 | 38 | 1008.1 |
| 20260506011731 | 74 | 213 | 6.0 | 14.0 | 0.00 | 0.00 | 0.00 | 38 | 1007.8 |
| 20260506011227 | 75 | 140 | 6.0 | 11.0 | 0.00 | 0.00 | 0.00 | 38 | 1007.7 |
| 20260506010726 | 75 | 219 | 5.0 | 8.0 | 0.00 | 0.00 | 0.00 | 38 | 1007.8 |
| 20260506010223 | 74 | 181 | 7.0 | 11.0 | 0.00 | 0.00 | 0.00 | 37 | 1007.9 |
| 20260506005720 | 75 | 185 | 5.0 | 8.0 | 0.00 | 0.00 | 0.00 | 38 | 1007.8 |
| 20260506005216 | 75 | 243 | 5.0 | 10.0 | 0.00 | 0.00 | 0.00 | 37 | 1008.0 |
| 20260506004712 | 75 | 206 | 5.0 | 11.0 | 0.00 | 0.00 | 0.00 | 38 | 1007.6 |
| 20260506004210 | 75 | 178 | 5.0 | 10.0 | 0.00 | 0.00 | 0.00 | 38 | 1007.6 |
| 20260506003706 | 75 | 144 | 6.0 | 8.0 | 0.00 | 0.00 | 0.00 | 38 | 1007.3 |
| 20260506003202 | 75 | 184 | 11.0 | 15.0 | 0.00 | 0.00 | 0.00 | 37 | 1007.4 |
| 20260506002658 | 76 | 214 | 5.0 | 11.0 | 0.00 | 0.00 | 0.00 | 38 | 1007.3 |
| 20260506002155 | 76 | 173 | 7.0 | 10.0 | 0.00 | 0.00 | 0.00 | 38 | 1007.5 |
| 20260506001650 | 76 | 240 | 7.0 | 10.0 | 0.00 | 0.00 | 0.00 | 37 | 1007.2 |
| 20260506001148 | 76 | 209 | 9.0 | 13.0 | 0.00 | 0.00 | 0.00 | 37 | 1007.2 |
| 20260506000645 | 77 | 234 | 7.0 | 13.0 | 0.00 | 0.00 | 0.00 | 37 | 1007.2 |
| 20260506000142 | 76 | 227 | 8.0 | 16.0 | 0.00 | 0.00 | 0.00 | 37 | 1007.2 |
| 20260505235641 | 77 | 207 | 10.0 | 11.0 | 0.00 | 0.00 | 0.00 | 36 | 1007.1 |
| 20260505235138 | 77 | 147 | 16.0 | 22.0 | 0.00 | 0.00 | 0.00 | 36 | 1006.9 |
| 20260505234634 | 77 | 220 | 5.0 | 20.0 | 0.00 | 0.00 | 0.00 | 36 | 1007.2 |
| 20260505234131 | 78 | 167 | 9.0 | 16.0 | 0.00 | 0.00 | 0.00 | 36 | 1007.2 |
| 20260505233628 | 78 | 191 | 5.0 | 16.0 | 0.00 | 0.00 | 0.00 | 36 | 1007.1 |
| 20260505233126 | 78 | 221 | 11.0 | 20.0 | 0.00 | 0.00 | 0.00 | 35 | 1007.2 |
| 20260505232623 | 78 | 185 | 10.0 | 21.0 | 0.00 | 0.00 | 0.00 | 36 | 1007.1 |
| 20260505232121 | 78 | 202 | 6.0 | 14.0 | 0.00 | 0.00 | 0.00 | 37 | 1007.0 |
| 20260505231617 | 78 | 192 | 10.0 | 18.0 | 0.00 | 0.00 | 0.00 | 36 | 1007.0 |
| 20260505231116 | 79 | 195 | 5.0 | 15.0 | 0.00 | 0.00 | 0.00 | 37 | 1007.0 |
| 20260505230614 | 79 | 191 | 7.0 | 11.0 | 0.00 | 0.00 | 0.00 | 37 | 1007.0 |
| 20260505230110 | 79 | 196 | 7.0 | 20.0 | 0.00 | 0.00 | 0.00 | 35 | 1007.0 |
| 20260505225606 | 79 | 242 | 6.0 | 16.0 | 0.00 | 0.00 | 0.00 | 36 | 1007.0 |
| 20260505225102 | 79 | 218 | 6.0 | 15.0 | 0.00 | 0.00 | 0.00 | 37 | 1006.9 |
| 20260505224559 | 79 | 194 | 8.0 | 15.0 | 0.00 | 0.00 | 0.00 | 36 | 1006.9 |
| 20260505224057 | 79 | 266 | 8.0 | 11.0 | 0.00 | 0.00 | 0.00 | 37 | 1006.6 |
| 20260505223554 | 79 | 204 | 6.0 | 15.0 | 0.00 | 0.00 | 0.00 | 38 | 1007.0 |
| 20260505223050 | 79 | 244 | 8.0 | 14.0 | 0.00 | 0.00 | 0.00 | 36 | 1007.2 |
| 20260505222546 | 79 | 211 | 6.0 | 9.0 | 0.00 | 0.00 | 0.00 | 37 | 1007.2 |
| 20260505222043 | 79 | 197 | 5.0 | 10.0 | 0.00 | 0.00 | 0.00 | 37 | 1007.1 |
| 20260505221540 | 79 | 205 | 5.0 | 16.0 | 0.00 | 0.00 | 0.00 | 36 | 1006.7 |
| 20260505221036 | 79 | 102 | 3.0 | 11.0 | 0.00 | 0.00 | 0.00 | 36 | 1007.4 |
| 20260505220533 | 79 | 192 | 8.0 | 13.0 | 0.00 | 0.00 | 0.00 | 36 | 1007.2 |
| 20260505220031 | 79 | 219 | 8.0 | 18.0 | 0.00 | 0.00 | 0.00 | 36 | 1006.9 |
| 20260505215529 | 79 | 218 | 17.0 | 23.0 | 0.00 | 0.00 | 0.00 | 35 | 1006.7 |
| 20260505215027 | 80 | 203 | 5.0 | 13.0 | 0.00 | 0.00 | 0.00 | 36 | 1007.1 |
| 20260505214525 | 79 | 187 | 6.0 | 18.0 | 0.00 | 0.00 | 0.00 | 36 | 1006.9 |
| 20260505214021 | 80 | 240 | 13.0 | 18.0 | 0.00 | 0.00 | 0.00 | 35 | 1007.1 |
| 20260505213519 | 80 | 182 | 11.0 | 16.0 | 0.00 | 0.00 | 0.00 | 36 | 1006.7 |
| 20260505213015 | 80 | 194 | 15.0 | 21.0 | 0.00 | 0.00 | 0.00 | 35 | 1006.9 |
| 20260505212512 | 80 | 192 | 14.0 | 18.0 | 0.00 | 0.00 | 0.00 | 36 | 1007.1 |
| 20260505212009 | 81 | 199 | 10.0 | 16.0 | 0.00 | 0.00 | 0.00 | 36 | 1006.7 |
| 20260505211506 | 81 | 198 | 12.0 | 20.0 | 0.00 | 0.00 | 0.00 | 36 | 1007.0 |
| 20260505211003 | 81 | 190 | 10.0 | 16.0 | 0.00 | 0.00 | 0.00 | 38 | 1006.6 |
| 20260505210459 | 81 | 199 | 9.0 | 20.0 | 0.00 | 0.00 | 0.00 | 38 | 1006.9 |
| 20260505205956 | 82 | 244 | 11.0 | 24.0 | 0.00 | 0.00 | 0.00 | 36 | 1006.9 |
| 20260505205455 | 82 | 203 | 13.0 | 24.0 | 0.00 | 0.00 | 0.00 | 36 | 1006.7 |
| 20260505204951 | 82 | 213 | 15.0 | 22.0 | 0.00 | 0.00 | 0.00 | 37 | 1006.6 |
| 20260505204449 | 82 | 201 | 8.0 | 16.0 | 0.00 | 0.00 | 0.00 | 37 | 1006.9 |
| 20260505203946 | 82 | 218 | 9.0 | 20.0 | 0.00 | 0.00 | 0.00 | 37 | 1006.6 |
| 20260505203442 | 82 | 205 | 7.0 | 15.0 | 0.00 | 0.00 | 0.00 | 37 | 1006.4 |
| 20260505202939 | 81 | 186 | 3.0 | 9.0 | 0.00 | 0.00 | 0.00 | 40 | 1006.9 |
| 20260505202435 | 81 | 227 | 8.0 | 18.0 | 0.00 | 0.00 | 0.00 | 38 | 1006.6 |
| 20260505201932 | 82 | 189 | 7.0 | 10.0 | 0.00 | 0.00 | 0.00 | 38 | 1006.6 |
| 20260505201429 | 82 | 152 | 12.0 | 18.0 | 0.00 | 0.00 | 0.00 | 37 | 1006.9 |
| 20260505200927 | 82 | 216 | 16.0 | 22.0 | 0.00 | 0.00 | 0.00 | 38 | 1006.9 |
| 20260505200424 | 82 | 192 | 8.0 | 13.0 | 0.00 | 0.00 | 0.00 | 40 | 1006.9 |
| 20260505195919 | 82 | 200 | 3.0 | 11.0 | 0.00 | 0.00 | 0.00 | 40 | 1006.9 |
| 20260505195417 | 82 | 115 | 8.0 | 15.0 | 0.00 | 0.00 | 0.00 | 39 | 1007.1 |
| 20260505194914 | 82 | 191 | 3.0 | 15.0 | 0.00 | 0.00 | 0.00 | 39 | 1007.1 |
| 20260505194412 | 82 | 191 | 9.0 | 18.0 | 0.00 | 0.00 | 0.00 | 40 | 1007.2 |
| 20260505193911 | 82 | 190 | 7.0 | 21.0 | 0.00 | 0.00 | 0.00 | 40 | 1007.0 |
| 20260505193409 | 81 | 184 | 11.0 | 20.0 | 0.00 | 0.00 | 0.00 | 40 | 1007.3 |
| 20260505192907 | 81 | 212 | 7.0 | 17.0 | 0.00 | 0.00 | 0.00 | 41 | 1007.2 |
| 20260505192405 | 81 | 208 | 12.0 | 17.0 | 0.00 | 0.00 | 0.00 | 39 | 1007.4 |
| 20260505191902 | 81 | 206 | 6.0 | 22.0 | 0.00 | 0.00 | 0.00 | 41 | 1007.3 |
| 20260505191401 | 82 | 203 | 4.0 | 8.0 | 0.00 | 0.00 | 0.00 | 43 | 1007.5 |
| 20260505190857 | 81 | 190 | 9.0 | 11.0 | 0.00 | 0.00 | 0.00 | 40 | 1007.6 |
| 20260505190353 | 81 | 247 | 3.0 | 13.0 | 0.00 | 0.00 | 0.00 | 40 | 1007.6 |
| 20260505185848 | 81 | 189 | 11.0 | 15.0 | 0.00 | 0.00 | 0.00 | 38 | 1007.8 |
| 20260505185345 | 81 | 230 | 5.0 | 17.0 | 0.00 | 0.00 | 0.00 | 40 | 1007.8 |
| 20260505184841 | 82 | 203 | 8.0 | 11.0 | 0.00 | 0.00 | 0.00 | 39 | 1007.7 |
| 20260505184338 | 81 | 190 | 7.0 | 11.0 | 0.00 | 0.00 | 0.00 | 39 | 1007.9 |
| 20260505183835 | 80 | 177 | 3.0 | 13.0 | 0.00 | 0.00 | 0.00 | 43 | 1008.1 |
| 20260505183332 | 81 | 277 | 14.0 | 20.0 | 0.00 | 0.00 | 0.00 | 38 | 1008.1 |
| 20260505182829 | 80 | 219 | 9.0 | 18.0 | 0.00 | 0.00 | 0.00 | 42 | 1008.1 |
| 20260505182326 | 81 | 204 | 11.0 | 14.0 | 0.00 | 0.00 | 0.00 | 41 | 1008.4 |
| 20260505181822 | 80 | 218 | 3.0 | 17.0 | 0.00 | 0.00 | 0.00 | 42 | 1008.1 |
| 20260505181320 | 80 | 173 | 9.0 | 11.0 | 0.00 | 0.00 | 0.00 | 40 | 1008.2 |
| 20260505180816 | 80 | 221 | 10.0 | 16.0 | 0.00 | 0.00 | 0.00 | 43 | 1008.4 |
| 20260505180313 | 81 | 200 | 6.0 | 15.0 | 0.00 | 0.00 | 0.00 | 42 | 1008.4 |
| 20260505175809 | 80 | 205 | 8.0 | 23.0 | 0.00 | 0.00 | 0.00 | 41 | 1008.4 |
| 20260505175306 | 80 | 212 | 4.0 | 15.0 | 0.00 | 0.00 | 0.00 | 43 | 1008.2 |
| 20260505174802 | 80 | 221 | 12.0 | 15.0 | 0.00 | 0.00 | 0.00 | 42 | 1008.5 |
| 20260505174300 | 80 | 230 | 10.0 | 21.0 | 0.00 | 0.00 | 0.00 | 42 | 1008.6 |
| 20260505173755 | 80 | 219 | 8.0 | 16.0 | 0.00 | 0.00 | 0.00 | 42 | 1008.6 |
| 20260505173252 | 80 | 152 | 7.0 | 16.0 | 0.00 | 0.00 | 0.00 | 44 | 1008.6 |
| 20260505172749 | 80 | 212 | 9.0 | 14.0 | 0.00 | 0.00 | 0.00 | 43 | 1008.7 |
| 20260505172246 | 79 | 191 | 11.0 | 15.0 | 0.00 | 0.00 | 0.00 | 41 | 1008.6 |
| 20260505171746 | 79 | 204 | 7.0 | 23.0 | 0.00 | 0.00 | 0.00 | 42 | 1008.7 |
| 20260505171243 | 79 | 193 | 3.0 | 15.0 | 0.00 | 0.00 | 0.00 | 44 | 1008.4 |
| 20260505170740 | 79 | 187 | 9.0 | 18.0 | 0.00 | 0.00 | 0.00 | 42 | 1008.6 |
| 20260505170237 | 79 | 341 | 11.0 | 15.0 | 0.00 | 0.00 | 0.00 | 42 | 1008.9 |
| 20260505165732 | 79 | 261 | 9.0 | 13.0 | 0.00 | 0.00 | 0.00 | 41 | 1008.9 |
| 20260505165229 | 79 | 209 | 4.0 | 20.0 | 0.00 | 0.00 | 0.00 | 42 | 1009.2 |
| 20260505164724 | 79 | 218 | 12.0 | 15.0 | 0.00 | 0.00 | 0.00 | 42 | 1009.0 |
| 20260505164222 | 80 | 191 | 8.0 | 13.0 | 0.00 | 0.00 | 0.00 | 44 | 1009.4 |
| 20260505163720 | 78 | 288 | 4.0 | 10.0 | 0.00 | 0.00 | 0.00 | 43 | 1009.5 |
| 20260505163218 | 78 | 206 | 12.0 | 15.0 | 0.00 | 0.00 | 0.00 | 42 | 1009.5 |
| 20260505162715 | 79 | 193 | 12.0 | 15.0 | 0.00 | 0.00 | 0.00 | 42 | 1009.6 |
| 20260505162212 | 79 | 213 | 5.0 | 15.0 | 0.00 | 0.00 | 0.00 | 44 | 1009.7 |
| 20260505161709 | 79 | 160 | 5.0 | 10.0 | 0.00 | 0.00 | 0.00 | 44 | 1009.8 |
| 20260505161206 | 78 | 229 | 3.0 | 10.0 | 0.00 | 0.00 | 0.00 | 43 | 1009.8 |
| 20260505160704 | 79 | 252 | 10.0 | 13.0 | 0.00 | 0.00 | 0.00 | 42 | 1010.1 |
| 20260505160201 | 78 | 209 | 10.0 | 13.0 | 0.00 | 0.00 | 0.00 | 43 | 1009.7 |
| 20260505153140 | 77 | 242 | 3.0 | 9.0 | 0.00 | 0.00 | 0.00 | 47 | 1009.9 |
| 20260505152637 | 78 | 206 | 6.0 | 8.0 | 0.00 | 0.00 | 0.00 | 47 | 1010.1 |
| 20260505152133 | 77 | 276 | 6.0 | 13.0 | 0.00 | 0.00 | 0.00 | 49 | 1009.8 |
| 20260505151629 | 77 | 160 | 4.0 | 10.0 | 0.00 | 0.00 | 0.00 | 49 | 1010.1 |
| 20260505151126 | 76 | 232 | 7.0 | 17.0 | 0.00 | 0.00 | 0.00 | 50 | 1010.1 |
| 20260505150622 | 76 | 217 | 8.0 | 11.0 | 0.00 | 0.00 | 0.00 | 50 | 1009.9 |
| 20260505150119 | 76 | 211 | 7.0 | 10.0 | 0.00 | 0.00 | 0.00 | 50 | 1009.7 |
| 20260505140547 | 71 | 220 | 4.0 | 8.0 | 0.00 | 0.00 | 0.00 | 61 | 1010.0 |
| 20260505125001 | 64 | 166 | 3.0 | 6.0 | 0.00 | 0.00 | 0.00 | 70 | 1010.7 |
| 20260505124457 | 64 | 202 | 2.0 | 6.0 | 0.00 | 0.00 | 0.00 | 71 | 1010.8 |
| 20260505123954 | 63 | 178 | 4.0 | 5.0 | 0.00 | 0.00 | 0.00 | 72 | 1011.1 |
| 20260505123450 | 62 | 35 | 4.0 | 7.0 | 0.00 | 0.00 | 0.00 | 72 | 1010.9 |
| 20260505122946 | 62 | 223 | 2.0 | 5.0 | 0.00 | 0.00 | 0.00 | 75 | 1010.8 |
| 20260505122444 | 61 | 171 | 3.0 | 6.0 | 0.00 | 0.00 | 0.00 | 75 | 1011.0 |
| 20260505121940 | 61 | 234 | 2.0 | 6.0 | 0.00 | 0.00 | 0.00 | 76 | 1011.0 |
| 20260505121437 | 60 | 202 | 6.0 | 10.0 | 0.00 | 0.00 | 0.00 | 75 | 1010.8 |
| 20260505120933 | 60 | 196 | 5.0 | 8.0 | 0.00 | 0.00 | 0.00 | 75 | 1010.9 |
| 20260505120430 | 60 | 178 | 4.0 | 7.0 | 0.00 | 0.00 | 0.00 | 77 | 1010.9 |
| 20260505115929 | 60 | 218 | 6.0 | 9.0 | 0.00 | 0.00 | 0.00 | 76 | 1010.9 |
| 20260505115426 | 59 | 188 | 7.0 | 8.0 | 0.00 | 0.00 | 0.00 | 76 | 1010.9 |
| 20260505114924 | 59 | 212 | 6.0 | 8.0 | 0.00 | 0.00 | 0.00 | 76 | 1010.8 |
| 20260505114420 | 59 | 192 | 3.0 | 7.0 | 0.00 | 0.00 | 0.00 | 77 | 1010.8 |
| 20260505113916 | 59 | 188 | 5.0 | 7.0 | 0.00 | 0.00 | 0.00 | 77 | 1010.8 |
| 20260505113413 | 59 | 210 | 4.0 | 7.0 | 0.00 | 0.00 | 0.00 | 78 | 1010.7 |
| 20260505112909 | 59 | 188 | 5.0 | 11.0 | 0.00 | 0.00 | 0.00 | 77 | 1010.6 |
| 20260505112407 | 58 | 162 | 5.0 | 7.0 | 0.00 | 0.00 | 0.00 | 78 | 1010.6 |
| 20260505111902 | 58 | 181 | 5.0 | 10.0 | 0.00 | 0.00 | 0.00 | 77 | 1010.6 |
| 20260505111357 | 58 | 178 | 1.0 | 10.0 | 0.00 | 0.00 | 0.00 | 78 | 1010.2 |
| 20260505110854 | 58 | 210 | 5.0 | 8.0 | 0.00 | 0.00 | 0.00 | 78 | 1010.6 |
| 20260505110351 | 58 | 213 | 4.0 | 9.0 | 0.00 | 0.00 | 0.00 | 79 | 1010.5 |
| 20260505101821 | 57 | 218 | 3.0 | 5.0 | 0.00 | 0.00 | 0.00 | 81 | 1009.8 |
| 20260505101316 | 57 | 198 | 3.0 | 6.0 | 0.00 | 0.00 | 0.00 | 81 | 1010.2 |
| 20260505100812 | 57 | 215 | 3.0 | 7.0 | 0.00 | 0.00 | 0.00 | 80 | 1009.4 |
| 20260505100309 | 57 | 164 | 5.0 | 6.0 | 0.00 | 0.00 | 0.00 | 80 | 1010.0 |
| 20260505095805 | 58 | 200 | 2.0 | 8.0 | 0.00 | 0.00 | 0.00 | 79 | 1009.8 |
| 20260505095304 | 58 | 177 | 4.0 | 7.0 | 0.00 | 0.00 | 0.00 | 79 | 1009.7 |
| 20260505094758 | 58 | 176 | 7.0 | 9.0 | 0.00 | 0.00 | 0.00 | 79 | 1009.8 |
| 20260505094255 | 58 | 189 | 6.0 | 8.0 | 0.00 | 0.00 | 0.00 | 79 | 1009.5 |
| 20260505093751 | 58 | 209 | 4.0 | 7.0 | 0.00 | 0.00 | 0.00 | 78 | 1009.6 |
| 20260505093249 | 58 | 181 | 5.0 | 7.0 | 0.00 | 0.00 | 0.00 | 79 | 1009.5 |
| 20260505092745 | 58 | 211 | 5.0 | 8.0 | 0.00 | 0.00 | 0.00 | 79 | 1009.6 |
| 20260505092244 | 58 | 206 | 4.0 | 8.0 | 0.00 | 0.00 | 0.00 | 80 | 1009.8 |
| 20260505091741 | 58 | 179 | 4.0 | 6.0 | 0.00 | 0.00 | 0.00 | 80 | 1009.4 |
| 20260505091239 | 58 | 205 | 6.0 | 7.0 | 0.00 | 0.00 | 0.00 | 79 | 1009.3 |
| 20260505090736 | 58 | 207 | 6.0 | 9.0 | 0.00 | 0.00 | 0.00 | 78 | 1009.7 |
| 20260505090235 | 58 | 200 | 2.0 | 9.0 | 0.00 | 0.00 | 0.00 | 79 | 1009.6 |
| 20260505085732 | 58 | 207 | 3.0 | 11.0 | 0.00 | 0.00 | 0.00 | 78 | 1009.4 |
| 20260505085230 | 59 | 199 | 6.0 | 8.0 | 0.00 | 0.00 | 0.00 | 78 | 1009.4 |
| 20260505084727 | 59 | 212 | 4.0 | 13.0 | 0.00 | 0.00 | 0.00 | 77 | 1009.5 |
| 20260505084226 | 59 | 207 | 4.0 | 7.0 | 0.00 | 0.00 | 0.00 | 77 | 1009.4 |
| 20260505083722 | 59 | 225 | 5.0 | 7.0 | 0.00 | 0.00 | 0.00 | 77 | 1009.2 |
| 20260505083219 | 59 | 212 | 2.0 | 7.0 | 0.00 | 0.00 | 0.00 | 77 | 1009.3 |
| 20260505082715 | 59 | 220 | 4.0 | 6.0 | 0.00 | 0.00 | 0.00 | 77 | 1009.0 |
| 20260505082213 | 59 | 239 | 2.0 | 5.0 | 0.00 | 0.00 | 0.00 | 76 | 1009.2 |
| 20260505081708 | 59 | 227 | 3.0 | 10.0 | 0.00 | 0.00 | 0.00 | 76 | 1008.9 |